Showing default

YIJIAN, 41899

Orbit data source: Space-Track

YIJIAN, 41899 is a payload satellite owned by SECM (CN) in SSO that was launched on Wed, 21 Dec 2016 UTC via a CHANG ZHENG 2D launch vehicle from the Jiuquan Satellite Launch Center, China (JSC). Payload-class satellites include a variety of spacecraft equipped with specific instruments for various scientific and technological missions. These include communications satellites like Starlink; space stations such as the ISS; scientific satellites like the Hubble; Earth observation satellites from companies like Planet Labs, Umbra, and HawkEye 360; GPS; miniature CubeSats for education and research; and military/defense satellites.

Loading next visibility...
Identifier
41899, 2016-081B
Orbit
SSO
Country
Flag of CNCN / PRC
Related business
Manufacturer
SECM
Mission
Operational Civil Imaging
Bus & Motor
CX-6, Unknown motor
Mass
60 kg wet, 60 kg dry
Launch date (UTC)
2016-12-21 (9 years ago)
Launch vehicle
CHANG ZHENG 2D
Launch site
Jiuquan Satellite Launch Center, China (JSC)
Object type
Payload
Rocket body
Debris
Shape & HBR
Box + 2 Pan, 0.5 m
Radar Cross Section
0.388 m², Medium (>0.1 m² and < 1m²)

Expand to show TLE details & history
Last TLE update: 1 day ago

TLE from 1 day ago
0 YIJIAN
1 41899U 16081B   25312.47222362  .00001245  00000-0  26728-3 0  9998
2 41899  98.5247 298.7731 0019749 272.1057  87.7881 14.60346647472372
Epoch: 2025-11-08T11:20Z
TLE epoch observation values (Epoch: 2025-11-08T11:20:00.120Z)
Latitude
-0.00001°
Longitude
80.87126°
Altitude
694.519 km
Speed
7.509 km/s
True Right ascension
19h 55m 05s
True Declination
0° 00' 00"
Sunlit
Object was in daylight at epoch
Visualization orbit readout
Latitude
Unknown
Longitude
Unknown
Altitude
Unknown
Speed
Unknown
Apparent Right ascension
Unknown
Apparent Declination
Unknown
Sunlit
N/A
Visualization observer readout
Local Sidereal Time
13:04:13
Azimuth
Unknown
Elevation
Unknown
Doppler factor
Unknown
Orbital elements
Apogee altitude
703.108 km
Perigee altitude
675.194 km
Semi-major axis
7,067.288 km
Eccentricity
0.00197
Inclination
98.5247°
RAAN
298.7731°
Arg. of periapsis
272.1057°
True anomaly
88.01426°
Mean anomaly
87.7881°
Eccentric anomaly
87.90118°
Mean motion
3.65312 °/min
Orbital period
98.55 mins
BSTAR
0.00026728
Loading maneuver chart data...
Computing Atmospheric mass density...
Loading historical data...
Loading historical data...
Loading historical data...
Loading historical data...
Loading historical data...
Loading historical data...
Loading historical data...
Other satellites on launch #81 in the year 2016 (2016-12-21 UTC)

Documentation

Showing up to 5 results
|